Regional Weather Roundup
Issued by NWS

Home | Current Version | Previous Version | Text Only | Print | Product List | Glossary On
Versions: 1 2 3 4 5 6 7 8 9 10 11 12 13 14 15 16 17 18 19 20 21 22 23 24 25 26 27 28 29 30 31 32 33 34 35 36 37 38 39 40 41 42 43 44 45 46 47 48 49 50
000
ASUS43 KMKX 260310
RWRWI

WISCONSIN REGIONAL WEATHER ROUNDUP
NATIONAL WEATHER SERVICE MILWAUKEE/SULLIVAN WI
900 PM CST SUN JAN 25 2015

NOTE: "FAIR" INDICATES FEW OR NO CLOUDS BELOW 12,000 FEET WITH NO
SIGNIFICANT WEATHER AND/OR OBSTRUCTIONS TO VISIBILITY.

WIZ001-002-006>008-014>016-023>028-260400-
NORTHWEST WISCONSIN

CITY           SKY/WX    TMP DP  RH WIND       PRES   REMARKS
SUPERIOR ARPT  CLOUDY    15  11  83 S3        30.01F
ASHLAND        MOCLDY    10   7  87 S3        30.01F
HAYWARD        MOCLDY    10   4  76 CALM      29.99F
SIREN          MOCLDY    20  11  66 S6        30.01F WCI  13
CUMBERLAND     CLOUDY    14  10  85 S5        29.99F WCI   6
RICE LAKE      CLOUDY    19  11  73 SE3       30.02F
CHETEK         CLOUDY    17  11  75 CALM      30.02F
LADYSMITH      PTCLDY    14   9  80 S3        30.03F
EAU CLAIRE     MOCLDY    18  10  71 CALM      30.04F
MENOMONIE      CLOUDY    19  15  85 CALM      30.05F
NEW RICHMOND   CLOUDY    17  11  79 S5        30.02F WCI  10
OSCEOLA        CLOUDY    20  14  76 S3        30.05F
$$

WIZ003>005-009-010-017-018-260400-
NORTH CENTRAL WISCONSIN

CITY           SKY/WX    TMP DP  RH WIND       PRES   REMARKS
MANITOWISH WTR FAIR       7   4  87 CALM      29.97F
ARBOR VITAE    PTCLDY    11   6  79 CALM      29.98F
WOODRUFF       PTCLDY    11   6  79 CALM      29.98F
RHINELANDER    MOCLDY    12   4  70 SE3       29.98F
EAGLE RIVER    PTCLDY     5   0  80 CALM      29.98F
LAND O LAKES   PTCLDY     2   0  88 CALM      29.98F
PHILLIPS       MOCLDY    10   5  81 CALM      29.98F
TOMAHAWK       MOCLDY    13   6  73 CALM      30.00F
MEDFORD        PTCLDY     9   6  85 CALM      30.00F
MERRILL        MOCLDY    15   8  73 CALM      30.02F
$$

WIZ029-030-035-036-043>047-260400-
CENTRAL WISCONSIN

CITY           SKY/WX    TMP DP  RH WIND       PRES   REMARKS
WAUSAU         CLOUDY    16   6  65 SE6       30.01F WCI   7
MOSINEE        NOT AVBL
MARSHFIELD     PTCLDY    18   8  65 CALM      30.02F
STEVENS POINT  CLOUDY    12   6  78 CALM      30.05F
WAUPACA        CLOUDY    19  10  67 CALM      30.09S
WAUTOMA        CLOUDY    16  12  84 CALM      30.09S
WISC RAPIDS    CLOUDY    17   8  67 CALM      30.07F
CAMP DOUGLAS   CLOUDY    18  12  80 SE3       30.06F
$$

WIZ011>013-019>022-031-037>040-048>050-260400-
NORTHEAST WISCONSIN

CITY           SKY/WX    TMP DP  RH WIND       PRES   REMARKS
ANTIGO         CLOUDY    12   7  80 E3        30.01F
SHAWANO        CLOUDY    18  10  69 CALM      30.09F
OCONTO         CLOUDY    13  10  86 MISG      30.10S
STURGEON BAY   PTCLDY    12   7  79 CALM      30.10S
GREEN BAY      CLOUDY    16   9  74 N5        30.10R WCI   9
MANITOWOC      MOCLDY    17  10  74 N9        30.08R WCI   6
APPLETON       MOCLDY    18   7  62 N6        30.07R WCI   9
CLINTONVILLE   CLOUDY    18   9  68 CALM      30.09F
OSHKOSH        CLOUDY    18   6  59 NE9       30.07R WCI   7
$$

WIZ032>034-041-042-053>061-260400-
SOUTHWEST WISCONSIN

CITY           SKY/WX    TMP DP  RH WIND       PRES   REMARKS
LA CROSSE      PTCLDY    23  16  74 SE5       30.06F WCI  17
SPARTA         CLOUDY    21  11  64 SE3       30.07F
VIROQUA        CLOUDY    20  13  75 CALM      30.03F
BOSCOBEL       CLOUDY    22  14  71 CALM      30.09S
PRAIRIE DU CHI CLEAR     19  12  76 CALM      30.09S
PLATTEVILLE    CLOUDY    18  13  80 NW5       30.06R WCI  11
$$

WIZ056-057-062-063-064-067-068-260400-
SOUTH CENTRAL WISCONSIN

CITY           SKY/WX    TMP DP  RH WIND       PRES   REMARKS
REEDSBURG      CLOUDY    18  10  70 NE3       30.07S
BARABOO/DELLS  MOCLDY    17  10  74 CALM      30.07S
LONE ROCK      CLOUDY    21  12  68 NE5       30.09R WCI  15
MINERAL POINT  CLOUDY    19  14  79 N3        30.04S
MADISON        MOCLDY    17  11  77 N7        30.06R WCI   8
MIDDLETON      CLOUDY    20  13  73 NE9       30.06S WCI   9
WATERTOWN      PTCLDY    15  12  87 N8        30.05R WCI   4
MONROE         CLOUDY    18  14  86 N10       30.03R WCI   6
JANESVILLE     CLEAR     19  12  73 N6        30.03R WCI  11
$$

WIZ051-052-058>065-066-070>072-260400-
SOUTHEAST WISCONSIN

CITY           SKY/WX    TMP DP  RH WIND       PRES   REMARKS
MILWAUKEE      MOCLDY    25  13  60 NE12      30.02S WCI  14
WAUKESHA       PTCLDY    18  12  79 N3        30.03S
MILWAUKEE/TIMM MOCLDY    19  12  73 N8        30.04R WCI   9
RACINE         PTCLDY    25  14  63 NE12G18   30.02F WCI  14
BURLINGTON     CLEAR     16  11  80 N6        30.01S WCI   8
KENOSHA        CLEAR     22  14  71 N7        30.00S WCI  13
FOND DU LAC    CLOUDY    17  10  74 N7        30.07R WCI   8
SHEBOYGAN      PTCLDY    16   9  74 N9        30.05S WCI   4
WEST BEND      CLEAR     18  10  73 N3        30.03S
JUNEAU         MOCLDY    14  10  84 NW6       30.07R WCI   5
$$

LSZ147-162-260400-
LAKE SUPERIOR

STATION/POSITION TIME  TEMP    WIND        PRES    WAVE
                       AIR SEA DIR/SP/G            HT/PER
                 (UTC) (F)     (DEG/KT/KT) (MB)    (FT/S)
DEVILS ISLAND    0300   20     160/  3/  4 1017.7F
PORT WING        0240   17     130/  2/  3 1016.9F
SAXON HARBOR     0200   11        CALM     1017.6F
$$

LMZ867-665-643>646-260400-
LAKE MICHIGAN

STATION/POSITION TIME  TEMP    WIND        PRES    WAVE
                       AIR SEA DIR/SP/G            HT/PER
                 (UTC) (F)     (DEG/KT/KT) (MB)    (FT/S)
NORTHPORT PIER   0211   19      20/  8/ 10 1019.3R
SISTER BAY       0228    7        CALM       N/A
KEWAUNEE LAKESHO 0200   17     350/  5/  9 1017.4F
SHEBOYGAN LAKESH 0300   24      30/ 16/ 18 1018.9F
PORT WASHINGTON  0200   23     350/  5/ 11 1018.3
MILWAUKEE LAKESH 0200   27      40/ 15/ 19   N/A
KENOSHA   LAKESH 0300   27      50/ 15/ 19 1015.9F
$$

TC  - TEMPERATURE IN CELSIUS
VSB - VISIBILITY IN STATUTE MILES
WCI - WIND CHILL INDEX
HX  - HEAT INDEX



USA.gov is the U.S. government's official web portal to all federal, state and local government web resources and services.